EST,Max TemperatureF,Mean TemperatureF,Min TemperatureF,Max Dew PointF,MeanDew PointF,Min DewpointF,Max Humidity, Mean Humidity, Min Humidity, Max Sea Level PressureIn, Mean Sea Level PressureIn, Min Sea Level PressureIn, Max VisibilityMiles, Mean VisibilityMiles, Min VisibilityMiles, Max Wind SpeedMPH, Mean Wind SpeedMPH, Max Gust SpeedMPH,PrecipitationIn, CloudCover, Events, WindDirDegrees
2012-12-1,50,41,32,41,36,32,100,91,71,30.45,30.40,30.35,7,3,0,5,0,,0.00,4,,38
2012-12-2,60,46,32,48,40,32,100,81,59,30.41,30.29,30.18,10,6,0,12,2,17,0.00,4,,198
2012-12-3,69,60,50,52,49,45,88,69,49,30.28,30.23,30.17,10,10,10,9,4,,0.00,3,,212
2012-12-4,71,62,53,52,50,46,88,67,41,30.27,30.19,30.07,10,10,10,10,3,17,0.00,4,,202
2012-12-5,62,52,41,50,38,25,72,54,33,30.29,30.14,30.02,10,10,10,13,7,20,0.00,3,,280
2012-12-6,41,36,30,28,24,21,87,65,49,30.40,30.33,30.29,10,10,10,9,2,,0.00,0,,33
2012-12-7,50,41,32,45,39,28,93,86,71,30.28,30.14,30.01,10,8,2,6,1,,0.00,8,,198
2012-12-8,53,48,42,50,47,43,100,93,87,30.02,29.96,29.93,7,3,0,8,2,,0.00,7,,223
2012-12-9,50,46,42,48,46,41,100,93,87,30.17,30.10,30.00,2,1,0,6,1,,0.00,8,,64
2012-12-10,68,59,50,61,55,48,100,86,73,29.99,29.76,29.62,10,6,0,12,4,22,0.00,7,,212
2012-12-11,62,52,41,55,37,30,87,67,54,30.22,29.98,29.65,10,10,10,10,5,18,0.00,7,,318
2012-12-12,42,38,35,32,29,23,81,64,46,30.42,30.36,30.23,10,10,10,7,1,,0.00,0,,23
2012-12-13,44,38,30,30,29,27,87,65,53,30.45,30.40,30.37,10,10,10,8,4,,0.00,0,,34
2012-12-14,50,38,26,34,30,25,100,78,43,30.36,30.31,30.24,10,10,5,9,1,,0.00,0,,229
2012-12-15,53,42,32,39,34,30,100,78,41,30.32,30.24,30.14,10,10,5,7,1,,0.00,1,,116
2012-12-16,51,46,42,50,45,39,94,88,76,30.16,30.00,29.85,10,8,2,8,2,16,0.00,8,,172
2012-12-17,53,52,51,52,50,48,100,93,88,29.87,29.78,29.59,10,4,0,8,2,,0.00,8,,141
2012-12-18,60,50,37,54,41,30,94,69,36,29.83,29.66,29.57,10,10,2,20,8,29,0.00,3,,261
2012-12-19,53,43,33,36,32,30,93,70,47,30.19,29.98,29.83,10,10,10,13,2,17,0.00,2,,283
2012-12-20,53,42,33,50,36,30,94,79,53,30.22,30.03,29.52,10,9,2,20,4,34,0.00,3,,122
2012-12-21,57,46,35,54,34,23,94,70,46,29.60,29.44,29.27,10,9,2,22,14,33,0.00,7,,247
2012-12-22,42,38,32,23,20,18,65,50,36,30.04,29.84,29.60,10,10,10,21,11,37,0.00,3,,284
2012-12-23,46,35,24,27,22,19,86,60,34,30.11,30.02,29.94,10,10,10,9,3,,0.00,0,,214
2012-12-24,42,36,30,39,32,25,93,82,65,30.10,30.00,29.91,10,8,2,8,2,,0.00,5,,95
2012-12-25,46,42,37,39,35,32,93,83,66,30.25,30.11,29.91,10,8,1,8,2,,0.00,6,,322
2012-12-26,53,42,32,52,37,30,100,90,75,30.26,29.81,29.38,10,6,1,21,6,37,0.00,7,,66
2012-12-27,42,38,33,36,28,23,100,69,49,30.03,29.74,29.40,10,10,5,26,15,38,0.00,6,,281
2012-12-28,42,36,30,30,28,25,93,75,53,30.17,30.10,30.03,10,10,10,8,3,,0.00,0,,273
2012-12-29,41,38,35,37,33,27,93,84,57,30.05,29.77,29.57,10,8,1,18,3,31,0.00,6,,284
2012-12-30,41,36,32,27,20,16,65,52,36,30.35,30.14,29.81,10,10,10,22,12,33,0.00,3,,295
2012-12-31,42,35,28,30,22,19,80,59,42,30.36,30.21,30.03,10,10,10,10,4,,0.00,2,,226